Location: Cargill Incorporated Elevator
(42.7294°N, 93.7333°W)
Time: 04:42:28
(UTC+00:00)

Meteor 2-5 Rocket - Pass Details

Date: 19 January 2026
Orbit: 833 x 910 km, 81.2° (Epoch: 15 February)

Event Time Altitude Azimuth Distance (km) Brightness Sun altitude
Rises 12:34:46 0° 350° (N) 3,514 6.7 -12.0°
Reaches altitude 10° 12:37:13 10° 351° (N) 2,579 6.0 -11.6°
Maximum altitude 12:43:07 86° 80° (E) 913 3.9 -10.5°
Drops below altitude 10° 12:49:03 10° 170° (S) 2,587 6.6 -9.5°
Sets 12:51:31 0° 171° (S) 3,525 7.3 -9.1°
